Location: Coupvray
(48.8929°N, 2.7967°E)
Time: 10:05:42
(UTC+00:00)

Altair 2 - Pass Details

Date: 24 January 2021
Orbit: 837 x 949 km, 90.2° (Epoch: 26 February)

Event Time Altitude Azimuth Distance (km) Brightness Sun altitude
Rises 17:42:48 0° 168° (SSE) 3,383 10.9 -11.3°
Reaches altitude 10° 17:45:11 10° 166° (SSE) 2,448 10.1 -11.7°
Maximum altitude 17:50:37 69° 84° (E) 896 7.6 -12.6°
Drops below altitude 10° 17:56:06 10° 2° (N) 2,474 10.0 -13.4°
Sets 17:58:31 0° 1° (N) 3,423 10.7 -13.8°
